Track WORLDVIEW-3 (WV-3) now! 10-day predictions WORLDVIEW-3 (WV-3) is classified as:
1 40115U 14048A 25199.57044526 .00000690 00000-0 87168-4 0 9996 2 40115 97.8767 273.6228 0004261 337.5671 22.5356 14.85031725592399